When you browse on this site, cookies collect data to enhance your experience and personalize the content and advertising you see.
Visit our Privacy Policy to learn more. By continuing to use the site, you agree to this use of cookies and data.
  • In Sweden
  • List of Countries
  • For 7 days
  • Water Temperature
  • Satellite Maps
  • Weather Map
  • Weather Widgets
  • user-avatar
    Login

    Hourly Weather Clearwater

    Today, 23 May, Thursday

    Time Temperature Precipitation Wind Pressure Humidity
    00:00 +27°C° 0 mm 6 mps 764 mmHg 64%
    01:00 +27°C° 0 mm 6 mps 764 mmHg 66%
    02:00 +27°C° 0 mm 6 mps 764 mmHg 67%
    03:00 +27°C° 0 mm 6 mps 764 mmHg 69%
    04:00 +27°C° 0 mm 6 mps 764 mmHg 69%
    05:00 +27°C° 0 mm 6 mps 764 mmHg 70%
    06:00 +27°C° 0 mm 6 mps 764 mmHg 70%
    07:00 +28°C° 0 mm 5 mps 765 mmHg 63%
    08:00 +29°C° 0 mm 5 mps 765 mmHg 56%
    09:00 +32°C° 0 mm 4 mps 765 mmHg 49%
    10:00 +33°C° 0 mm 4 mps 765 mmHg 45%
    11:00 +34°C° 0 mm 3 mps 765 mmHg 42%
    12:00 +35°C° 0 mm 2 mps 765 mmHg 39%
    13:00 +36°C° 0 mm 3 mps 764 mmHg 41%
    14:00 +36°C° 0 mm 3 mps 764 mmHg 43%
    15:00 +36°C° 0 mm 4 mps 763 mmHg 44%
    16:00 +35°C° 0 mm 5 mps 763 mmHg 45%
    17:00 +34°C° 0 mm 6 mps 763 mmHg 45%
    18:00 +33°C° 0 mm 6 mps 763 mmHg 46%
    19:00 +32°C° 0 mm 7 mps 764 mmHg 52%
    20:00 +30°C° 0 mm 7 mps 764 mmHg 58%
    21:00 +28°C° 0 mm 8 mps 764 mmHg 65%
    22:00 +28°C° 0 mm 7 mps 764 mmHg 66%
    23:00 +27°C° 0 mm 7 mps 764 mmHg 68%

    Tomorrow, 24 May, Friday

    Time Temperature Precipitation Wind Pressure Humidity
    00:00 +27°C° 0 mm 7 mps 764 mmHg 70%
    01:00 +26°C° 0 mm 6 mps 764 mmHg 70%
    02:00 +26°C° 0 mm 6 mps 764 mmHg 71%
    03:00 +26°C° 0 mm 6 mps 763 mmHg 72%
    04:00 +26°C° 0 mm 6 mps 764 mmHg 72%
    05:00 +26°C° 0 mm 6 mps 764 mmHg 72%
    06:00 +26°C° 0 mm 5 mps 764 mmHg 72%
    07:00 +27°C° 0 mm 5 mps 764 mmHg 66%
    08:00 +29°C° 0 mm 4 mps 764 mmHg 59%
    09:00 +30°C° 0 mm 4 mps 764 mmHg 53%
    10:00 +32°C° 0 mm 4 mps 764 mmHg 48%
    11:00 +34°C° 0 mm 3 mps 764 mmHg 43%
    12:00 +35°C° 0 mm 3 mps 764 mmHg 38%
    13:00 +36°C° 0 mm 3 mps 763 mmHg 37%
    14:00 +36°C° 0 mm 4 mps 763 mmHg 37%
    15:00 +37°C° 0 mm 4 mps 762 mmHg 36%
    16:00 +36°C° 0 mm 4 mps 762 mmHg 39%
    17:00 +35°C° 0 mm 4 mps 762 mmHg 41%
    18:00 +35°C° 0 mm 5 mps 762 mmHg 44%
    19:00 +33°C° 0 mm 5 mps 762 mmHg 48%
    20:00 +32°C° 0 mm 6 mps 763 mmHg 53%
    21:00 +30°C° 0 mm 6 mps 763 mmHg 57%
    22:00 +29°C° 0 mm 6 mps 763 mmHg 60%
    23:00 +28°C° 0 mm 6 mps 763 mmHg 63%

    Day after tomorrow, 25 May, Saturday

    Time Temperature Precipitation Wind Pressure Humidity
    00:00 +28°C° 0 mm 5 mps 763 mmHg 66%
    01:00 +27°C° 0 mm 5 mps 763 mmHg 67%
    02:00 +27°C° 0 mm 4 mps 762 mmHg 69%
    03:00 +27°C° 0 mm 4 mps 762 mmHg 70%
    04:00 +27°C° 0 mm 3 mps 762 mmHg 70%
    05:00 +27°C° 0 mm 3 mps 763 mmHg 70%
    06:00 +27°C° 0 mm 2 mps 763 mmHg 70%
    07:00 +28°C° 0 mm 2 mps 763 mmHg 65%
    08:00 +30°C° 0 mm 3 mps 763 mmHg 60%
    09:00 +31°C° 0 mm 3 mps 764 mmHg 55%
    10:00 +33°C° 0 mm 3 mps 763 mmHg 50%
    11:00 +35°C° 0 mm 3 mps 763 mmHg 45%
    12:00 +36°C° 0 mm 3 mps 763 mmHg 40%
    13:00 +37°C° 0 mm 4 mps 762 mmHg 40%
    14:00 +37°C° 0 mm 4 mps 762 mmHg 39%
    15:00 +38°C° 0 mm 4 mps 761 mmHg 39%
    16:00 +37°C° 0 mm 4 mps 762 mmHg 41%
    17:00 +36°C° 0 mm 5 mps 762 mmHg 43%
    18:00 +35°C° 0 mm 5 mps 762 mmHg 45%
    19:00 +34°C° 0 mm 5 mps 762 mmHg 49%
    20:00 +33°C° 0 mm 6 mps 763 mmHg 54%
    21:00 +32°C° 0 mm 6 mps 763 mmHg 58%
    22:00 +30°C° 0 mm 6 mps 763 mmHg 61%
    23:00 +29°C° 0 mm 6 mps 763 mmHg 64%

    26 May, Sunday

    Time Temperature Precipitation Wind Pressure Humidity
    00:00 +29°C° 0 mm 6 mps 763 mmHg 67%
    01:00 +28°C° 0 mm 5 mps 763 mmHg 69%
    02:00 +28°C° 0 mm 5 mps 763 mmHg 71%
    03:00 +28°C° 0 mm 5 mps 762 mmHg 73%
    04:00 +28°C° 0 mm 4 mps 763 mmHg 73%
    05:00 +28°C° 0 mm 4 mps 763 mmHg 73%
    06:00 +28°C° 0 mm 3 mps 763 mmHg 73%
    07:00 +29°C° 0 mm 3 mps 764 mmHg 68%
    08:00 +31°C° 0 mm 3 mps 764 mmHg 62%
    09:00 +33°C° 0 mm 3 mps 764 mmHg 56%
    10:00 +34°C° 0 mm 2 mps 764 mmHg 51%
    11:00 +35°C° 0 mm 2 mps 763 mmHg 47%
    12:00 +37°C° 0 mm 2 mps 763 mmHg 42%
    13:00 +37°C° 0 mm 3 mps 762 mmHg 42%
    14:00 +37°C° 0 mm 4 mps 762 mmHg 42%
    15:00 +37°C° 0 mm 4 mps 761 mmHg 42%
    16:00 +36°C° 0 mm 4 mps 761 mmHg 46%
    17:00 +36°C° 0 mm 5 mps 761 mmHg 49%
    18:00 +35°C° 0 mm 5 mps 762 mmHg 53%
    19:00 +34°C° 0 mm 5 mps 762 mmHg 55%
    20:00 +33°C° 0 mm 5 mps 762 mmHg 56%
    21:00 +33°C° 0 mm 5 mps 763 mmHg 58%
    22:00 +32°C° 0 mm 5 mps 762 mmHg 62%
    23:00 +30°C° 0 mm 5 mps 762 mmHg 66%

    27 May, Monday

    Time Temperature Precipitation Wind Pressure Humidity
    00:00 +29°C° 0 mm 4 mps 762 mmHg 70%
    01:00 +29°C° 0 mm 4 mps 762 mmHg 71%
    02:00 +28°C° 0 mm 3 mps 762 mmHg 73%
    03:00 +28°C° 0 mm 3 mps 761 mmHg 74%
    04:00 +28°C° 0 mm 2 mps 762 mmHg 74%
    05:00 +28°C° 0 mm 2 mps 762 mmHg 74%
    06:00 +28°C° 0 mm 2 mps 762 mmHg 74%
    07:00 +29°C° 0 mm 2 mps 762 mmHg 69%
    08:00 +30°C° 0 mm 2 mps 762 mmHg 63%
    09:00 +31°C° 0 mm 2 mps 762 mmHg 58%
    10:00 +34°C° 0 mm 2 mps 762 mmHg 53%
    11:00 +35°C° 0 mm 2 mps 762 mmHg 47%
    12:00 +37°C° 0 mm 2 mps 761 mmHg 42%
    13:00 +36°C° 0 mm 3 mps 761 mmHg 43%
    14:00 +36°C° 0 mm 4 mps 760 mmHg 44%
    15:00 +36°C° 0 mm 4 mps 760 mmHg 44%
    16:00 +36°C° 0 mm 4 mps 760 mmHg 46%
    17:00 +35°C° 0 mm 4 mps 760 mmHg 48%
    18:00 +35°C° 0 mm 3 mps 760 mmHg 50%
    19:00 +34°C° 0 mm 4 mps 761 mmHg 50%
    20:00 +33°C° 0 mm 4 mps 761 mmHg 51%
    21:00 +32°C° 0 mm 5 mps 761 mmHg 52%
    22:00 +30°C° 0 mm 5 mps 761 mmHg 56%
    23:00 +29°C° 0 mm 5 mps 761 mmHg 59%

    28 May, Tuesday

    Time Temperature Precipitation Wind Pressure Humidity
    00:00 +28°C° 0 mm 5 mps 761 mmHg 63%
    01:00 +28°C° 0 mm 5 mps 761 mmHg 64%
    02:00 +27°C° 0 mm 5 mps 761 mmHg 65%
    03:00 +27°C° 0 mm 5 mps 760 mmHg 66%
    04:00 +27°C° 0 mm 4 mps 761 mmHg 65%
    05:00 +27°C° 0 mm 4 mps 761 mmHg 65%
    06:00 +27°C° 0 mm 4 mps 761 mmHg 65%
    07:00 +28°C° 0 mm 4 mps 761 mmHg 60%
    08:00 +30°C° 0 mm 3 mps 761 mmHg 54%
    09:00 +31°C° 0 mm 3 mps 761 mmHg 48%
    10:00 +32°C° 0 mm 2 mps 761 mmHg 44%
    11:00 +35°C° 0 mm 2 mps 761 mmHg 40%
    12:00 +36°C° 0 mm 2 mps 760 mmHg 35%
    13:00 +37°C° 0 mm 2 mps 760 mmHg 35%
    14:00 +37°C° 0 mm 2 mps 760 mmHg 34%
    15:00 +38°C° 0 mm 2 mps 759 mmHg 34%
    16:00 +37°C° 0 mm 3 mps 759 mmHg 36%
    17:00 +36°C° 0 mm 3 mps 760 mmHg 38%
    18:00 +36°C° 0 mm 3 mps 760 mmHg 40%
    19:00 +34°C° 0 mm 4 mps 760 mmHg 43%
    20:00 +33°C° 0 mm 5 mps 761 mmHg 47%
    21:00 +30°C° 0 mm 7 mps 761 mmHg 51%
    22:00 +30°C° 0 mm 7 mps 761 mmHg 55%
    23:00 +29°C° 0 mm 7 mps 761 mmHg 59%
    Show more